Regional Weather Roundup
Issued by NWS Albany, NY

Home | Current Version | Previous Version | Text Only | Print | Product List | Glossary On
Versions: 1 2 3 4 5 6 7 8 9 10 11 12 13 14 15 16 17 18 19 20 21 22 23 24 25 26 27 28 29 30 31 32 33 34 35 36 37 38 39 40 41 42 43 44 45 46 47 48 49 50
000
ASUS41 KALY 151410
RWRALY

NEW YORK STATE HOURLY WEATHER ROUNDUP
NATIONAL WEATHER SERVICE ALBANY NY
900 AM EST FRI DEC 15 2017

NOTE: "FAIR" INDICATES FEW OR NO CLOUDS BELOW 12,000 FEET WITH NO
SIGNIFICANT WEATHER AND/OR NO OBSTRUCTIONS TO VISIBILITY.

NYZ032-033-038>043-046>054-057>066-NYZ062>081-082-084-151500-
EAST


CITY           SKY/WX    TMP DP  RH WIND       PRES   REMARKS
ALBANY         CLOUDY    14   7  73 S3        30.08S
GLENS FALLS    CLOUDY    -4  -7  87 CALM      30.07R
POUGHKEEPSIE   CLOUDY    14   7  73 CALM      30.10R
NEWBURGH       PTSUNNY   16  10  79 CALM      30.08S
MONTGOMERY     CLOUDY    13   7  77 CALM      30.07R
WHITE PLAINS   CLOUDY    20  10  65 SW5       30.08R WCI  13
ISLIP          CLOUDY    22  13  68 CALM      30.11R
NEW YORK CITY  CLOUDY    25  10  53 CALM      30.12R
CENTRAL PARK   CLOUDY    23  10  57 W5        30.13R WCI  17
$$

NYZ005>009-017-018-044>046-055-056-151500-
CENTRAL


CITY           SKY/WX    TMP DP  RH WIND       PRES   REMARKS
FULTON         SUNNY     12  10  92 CALM      29.99S
SYRACUSE       MOSUNNY   11   7  84 SE7       30.00S WCI   0
ROME           PTSUNNY    9   7  92 SE7       30.04R WCI  -2
ELMIRA         CLOUDY     6   2  83 CALM      30.00S
BINGHAMTON     CLOUDY    11   6  81 S3        29.93S
MONTICELLO     CLOUDY     6   2  83 CALM      30.01R
$$

NYZ026>034-041>043-087-151500-
NORTH


CITY           SKY/WX    TMP DP  RH WIND       PRES   REMARKS
WATERTOWN      SNOW      19  16  88 VRB7      29.97S VSB 1/4 WCI  10
FORT DRUM      NOT AVBL
OGDENSBURG     FAIR       5   2  88 CALM      29.97S
MASSENA        CLOUDY    -2  -4  91 S5        30.01F WCI -12
SARANAC LAKE   CLOUDY    -2  -5  87 CALM      29.88R FOG
PLATTSBURGH    PTSUNNY    8   2  76 CALM      30.02S
$$

NYZ001>004-010>016-019>021-085-151500-
WEST


CITY           SKY/WX    TMP DP  RH WIND       PRES   REMARKS
NIAGARA FALLS  CLOUDY    20  13  74 S5        29.93F WCI  13
BUFFALO        LGT SNOW  19  16  88 S6        29.93F VSB 1   WCI  11
DUNKIRK        CLOUDY    18  12  77 S14       29.94F WCI   4
JAMESTOWN      CLOUDY    12   9  87 S6        29.88F WCI   3
WELLSVILLE     CLOUDY    15   8  73 S8        29.88S WCI   4
ROCHESTER      CLOUDY    15  12  88 SW10      29.97F WCI   2
PENN YAN       CLOUDY    15  10  80 SW9       29.96S WCI   3
$$

             KEY
       WCI = WIND CHILL INDEX
       VSB = VISIBILITY
       HX  = HEAT INDEX
$$



USA.gov is the U.S. government's official web portal to all federal, state and local government web resources and services.